If you wish to contribute or participate in the discussions about articles you are invited to join SKYbrary as a registered user

 Actions

Ain el Beida Airport

From SKYbrary Wiki

DAUU
Airport
ICAO: DAUU – IATA: OGX
Summary
Name Ain el Beida Airport
Region Africa
Territory Algeria DZ.gif
Location , Ouargla
Serving Ouargla
Elevation 149.962 m
492 ft
492 ft149.962 m
Type medium airport
Coordinates 31° 55' 2.0028", 5° 24' 46.0008"
Runways
Designator Length Width Surface ROPS
2/20 3000 m9,842.52 ft 45 m147.638 ft ASP /
18/36 3100 m10,170.604 ft 45 m147.638 ft ASP /


METAR
Observation DAUU 250900Z 31013KT 8000 NSC 14/00 Q1011
Station Ouargla
Date/Time 25 February 2018 09:00:00
Wind direction 310°
Wind speed 13 kts
Lowest cloud amount nil significant cloud
Temperature 14°C
Dew point 0°C
Humidity 38%
QNH 1011 hPa
Weather condition n/a